Yakima, WA

12:52 AM PST on January 20, 2017 (GMT -0800)
Yakima Air Term-McAllister

Weather History for KYKM - August, 2013

Change the Weather History Date:

Monday, August 19, 2013

  Actual Average Record
Temperature  
Mean Temperature 73 °F 69 °F  
Max Temperature 91 °F 86 °F 99 °F (1967)
Min Temperature 54 °F 51 °F 38 °F (1947)
Degree Days  
Heating Degree Days 0 1  
Month to date heating degree days 0 12  
Since 1 June heating degree days 39 131  
Since 1 July heating degree days 0 33  
Cooling Degree Days 8 5  
Month to date cooling degree days 203 118  
Year to date cooling degree days 766 398  
Since 1 June cooling degree days 714 378  
Growing Degree Days 22 (Base 50)    
Moisture  
Dew Point 50 °F    
Average Humidity 55    
Maximum Humidity 83    
Minimum Humidity 26    
Precipitation  
Precipitation 0.00 in 0.01 in 0.23 in (1953)
Month to date precipitation 0.01 0.15  
Year to date precipitation 4.18 4.66  
Snow  
Snow 0.00 in 0.00 in 0.00 in (2002)
Month to date snowfall 0.0 0.0  
Year to date snowfall 1.1 8.6  
Since 1 July snowfall 0.0 0.0  
Snow Depth 0.00 in    
Sea Level Pressure  
Sea Level Pressure 29.98 in    
Wind  
Wind Speed 7 mph (WNW)    
Max Wind Speed 16 mph    
Max Gust Speed 32 mph    
Visibility 10 miles    
Events      
T = Trace of Precipitation, MM = Missing Value Source: NWS Daily Summary

Daily Weather History Graph

Daily Weather History Graph

Search for Another Location

Airport or City:

Trip Planner

Search our weather history database for the weather conditions in past years. The results will help you decide how hot, cold, wet, or windy it might be!

Date:

Astronomy

Aug. 19, 2013 Rise Set
Actual Time 6:05 AM PDT 8:04 PM PDT
Civil Twilight 5:33 AM PDT 8:36 PM PDT
Nautical Twilight 4:53 AM PDT 9:16 PM PDT
Astronomical Twilight 4:08 AM PDT 10:00 PM PDT
Moon 6:58 PM PDT (8/19) 4:29 AM PDT (8/19)
Length of Visible Light 15h 03m
Length of Day
13h 58m
Waxing Gibbous, 98% of the Moon is Illuminated
Aug 19
Waxing Gibbous
Aug 20
Full
Aug 28
Last Quarter
Sep 5
New
Sep 12
First Quarter

Hourly Weather History & Observations

Time (PDT) Temp. Dew Point Humidity Pressure Visibility Wind Dir Wind Speed Gust Speed Precip Events Conditions
12:53 AM 64.0 °F 53.1 °F 67% 29.99 in 10.0 mi West 5.8 mph - N/A   Clear
1:53 AM 64.9 °F 53.1 °F 65% 29.99 in 10.0 mi West 6.9 mph - N/A   Clear
2:53 AM 62.1 °F 52.0 °F 70% 29.99 in 10.0 mi SW 3.5 mph - N/A   Clear
3:53 AM 57.9 °F 51.1 °F 78% 29.99 in 10.0 mi WSW 5.8 mph - N/A   Clear
4:53 AM 59.0 °F 51.1 °F 75% 29.99 in 10.0 mi West 4.6 mph - N/A   Clear
5:11 AM 53.6 °F 48.2 °F 82% 30.01 in 10.0 mi North - - N/A   Clear
5:53 AM 55.0 °F 50.0 °F 83% 30.00 in 10.0 mi West 6.9 mph - N/A   Clear
6:53 AM 57.0 °F 50.0 °F 77% 30.01 in 10.0 mi West 6.9 mph - N/A   Clear
7:53 AM 66.0 °F 52.0 °F 60% 30.01 in 10.0 mi WSW 4.6 mph - N/A   Clear
8:53 AM 72.0 °F 50.0 °F 46% 30.01 in 10.0 mi Calm Calm - N/A   Clear
9:53 AM 75.9 °F 48.9 °F 38% 30.01 in 10.0 mi Calm Calm - N/A   Clear
10:53 AM 80.1 °F 50.0 °F 35% 30.01 in 10.0 mi Variable 4.6 mph - N/A   Partly Cloudy
11:53 AM 82.9 °F 48.9 °F 31% 30.00 in 10.0 mi Variable 3.5 mph - N/A   Partly Cloudy
12:53 PM 86.0 °F 48.0 °F 27% 29.98 in 10.0 mi Calm Calm - N/A   Partly Cloudy
1:53 PM 88.0 °F 48.9 °F 26% 29.96 in 10.0 mi Variable 3.5 mph - N/A   Scattered Clouds
2:53 PM 88.0 °F 48.0 °F 25% 29.94 in 10.0 mi WNW 3.5 mph - N/A   Clear
3:53 PM 90.0 °F 50.0 °F 25% 29.93 in 10.0 mi North 9.2 mph - N/A   Clear
4:53 PM 89.1 °F 50.0 °F 26% 29.92 in 10.0 mi North 13.8 mph - N/A   Clear
5:53 PM 87.1 °F 48.0 °F 26% 29.92 in 10.0 mi NNE 13.8 mph - N/A   Clear
6:53 PM 84.0 °F 48.0 °F 28% 29.93 in 10.0 mi NNE 16.1 mph 21.9 mph N/A   Clear
7:53 PM 79.0 °F 48.9 °F 35% 29.94 in 10.0 mi North 10.4 mph - N/A   Clear
8:53 PM 75.9 °F 50.0 °F 40% 29.97 in 10.0 mi NNW 11.5 mph 32.2 mph N/A   Clear
9:53 PM 71.1 °F 50.0 °F 47% 29.98 in 10.0 mi WNW 5.8 mph - N/A   Clear
10:53 PM 69.1 °F 51.1 °F 53% 29.98 in 10.0 mi NW 8.1 mph - N/A   Clear
11:53 PM 69.1 °F 50.0 °F 51% 29.99 in 10.0 mi NW 8.1 mph 18.4 mph N/A   Clear